Location: Waco, TX
(31.5480°N, 97.1670°W)
Time: 16:08:02
(UTC-06:00)

ISS - Pass Details

Date: 31 January 2021
Orbit: 417 x 422 km, 51.6° (Epoch: 07 March)

Event Time Altitude Azimuth Distance (km) Brightness Sun altitude
Rises 20:28:36 0° 328° (NNW) 2,372 0.4 -31.2°
Enters shadow 20:28:47 - 328° (NNW) 2,301 0.4 -31.3°
Reaches altitude 10° 20:31:01 10° 344° (NNW) 1,506 - -31.7°
Maximum altitude 20:33:44 22° 37° (NE) 979 - -32.3°
Drops below altitude 10° 20:36:25 10° 90° (E) 1,501 - -32.9°
Sets 20:38:50 0° 107° (ESE) 2,362 - -33.4°
